EW4932 Weather Reports


time (UTC)temp
C
wind
direction
speed
KPH
gust
KPH
rain 1hr
cm
rain 24hr
cm
rain mn
cm
humidity
%
barometer
mb
20260507063006 13 0 0.0 0.0 0.00 0.00 0.00 79 1020.8
20260507062505 13 0 0.0 0.0 0.00 0.00 0.00 79 1020.8
20260507062005 13 0 0.0 0.0 0.00 0.00 0.00 79 1020.8
20260507061005 13 0 0.0 0.0 0.00 0.00 0.00 79 1020.8
20260507060505 13 0 0.0 0.0 0.00 0.00 0.00 79 1020.8
20260507060006 13 0 0.0 0.0 0.00 0.00 0.00 79 1020.8
20260507055505 13 0 0.0 0.0 0.00 0.00 0.00 79 1020.8
20260507055005 13 0 0.0 0.0 0.00 0.00 0.00 79 1020.8
20260507054505 13 0 0.0 0.0 0.00 0.00 0.00 78 1020.7
20260507054005 13 0 0.0 0.0 0.00 0.00 0.00 78 1020.8
20260507053506 13 0 0.0 0.0 0.00 0.00 0.00 78 1020.7
20260507053005 13 0 0.0 0.0 0.00 0.00 0.00 78 1020.7
20260507052005 13 0 0.0 0.0 0.00 0.00 0.00 78 1020.6
20260507051505 13 21 0.0 6.4 0.00 0.00 0.00 77 1020.7
20260507051005 13 27 1.6 6.4 0.00 0.00 0.00 77 1020.7
20260507050505 13 26 0.0 6.4 0.00 0.00 0.00 77 1020.7
20260507045505 14 0 0.0 0.0 0.00 0.00 0.00 77 1020.7
20260507045005 14 11 0.0 3.2 0.00 0.00 0.00 76 1020.7
20260507044506 14 16 0.0 8.0 0.00 0.00 0.00 76 1020.7
20260507044005 14 25 0.0 8.0 0.00 0.00 0.00 76 1020.7
20260507043505 14 14 1.6 6.4 0.00 0.00 0.00 76 1020.7
20260507043005 14 5 1.6 6.4 0.00 0.00 0.00 75 1020.6
20260507042505 15 356 0.0 4.8 0.00 0.00 0.00 75 1020.6
20260507042005 15 342 0.0 1.6 0.00 0.00 0.00 75 1020.5
20260507041505 15 7 0.0 8.0 0.00 0.00 0.00 75 1020.5
20260507041005 15 7 0.0 8.0 0.00 0.00 0.00 75 1020.4
20260507040505 15 344 0.0 3.2 0.00 0.00 0.00 75 1020.3
20260507040005 15 6 1.6 8.0 0.00 0.00 0.00 74 1020.2
20260507035506 15 12 1.6 8.0 0.00 0.00 0.00 74 1020.1
20260507035005 15 8 1.6 6.4 0.00 0.00 0.00 74 1020.1
20260507034506 15 2 0.0 6.4 0.00 0.00 0.00 75 1020.0
20260507034005 15 354 0.0 4.8 0.00 0.00 0.00 75 1019.9
20260507033505 15 341 0.0 6.4 0.00 0.00 0.00 74 1019.9
20260507033005 15 346 1.6 6.4 0.00 0.00 0.00 74 1019.8
20260507032006 16 325 0.0 1.6 0.00 0.00 0.00 74 1019.6
20260507031505 16 11 1.6 12.9 0.00 0.00 0.00 73 1019.5
20260507031005 16 15 1.6 12.9 0.00 0.00 0.00 73 1019.5
20260507030505 16 22 0.0 8.0 0.00 0.00 0.00 73 1019.5
20260507030005 16 5 0.0 1.6 0.00 0.00 0.00 73 1019.4
20260507025507 16 338 0.0 3.2 0.00 0.00 0.00 73 1019.4
20260507025006 16 337 0.0 3.2 0.00 0.00 0.00 73 1019.2
20260507024505 17 11 0.0 3.2 0.00 0.00 0.00 72 1019.2
20260507023506 17 11 0.0 3.2 0.00 0.00 0.00 71 1019.1
20260507023005 17 13 0.0 3.2 0.00 0.00 0.00 71 1019.1
20260507022505 17 355 0.0 6.4 0.00 0.00 0.00 70 1019.1
20260507022005 17 354 0.0 6.4 0.00 0.00 0.00 70 1019.1
20260507021505 17 0 0.0 0.0 0.00 0.00 0.00 69 1019.2
20260507021005 17 0 0.0 0.0 0.00 0.00 0.00 69 1019.1
20260507020505 17 350 0.0 3.2 0.00 0.00 0.00 69 1019.1
20260507020005 17 347 1.6 6.4 0.00 0.00 0.00 69 1019.1
20260507015506 18 357 1.6 6.4 0.00 0.00 0.00 68 1019.2
20260507015005 18 3 1.6 9.7 0.00 0.00 0.00 69 1019.2
20260507014505 18 356 1.6 12.9 0.00 0.00 0.00 69 1019.2
20260507014005 18 24 1.6 12.9 0.00 0.00 0.00 68 1019.2
20260507013505 18 20 1.6 11.3 0.00 0.00 0.00 68 1019.2
20260507013006 18 4 1.6 16.1 0.00 0.00 0.00 68 1019.2
20260507012505 18 2 3.2 16.1 0.00 0.00 0.00 68 1019.1
20260507012005 18 357 1.6 12.9 0.00 0.00 0.00 69 1019.1
20260507011506 19 2 1.6 12.9 0.00 0.00 0.00 68 1019.1
20260507011005 19 11 1.6 11.3 0.00 0.00 0.00 68 1019.1
20260507010505 19 18 1.6 6.4 0.00 0.00 0.00 68 1019.0
20260507005505 19 1 0.0 1.6 0.00 0.00 0.00 69 1019.0
20260507005005 19 13 1.6 12.9 0.00 0.00 0.00 69 1019.0
20260507004505 20 20 1.6 12.9 0.00 0.00 0.00 67 1019.0
20260507004005 20 18 1.6 6.4 0.00 0.00 0.00 68 1019.0
20260507003506 20 10 1.6 9.7 0.00 0.00 0.00 68 1018.9
20260507003005 20 340 1.6 9.7 0.00 0.00 0.00 68 1018.9
20260507002505 20 331 1.6 6.4 0.00 0.00 0.00 67 1018.8
20260507002005 20 357 1.6 6.4 0.00 0.00 0.00 65 1018.8
20260507001005 20 353 1.6 11.3 0.00 0.00 0.00 66 1018.9
20260507000506 20 354 0.0 8.0 0.00 0.00 0.00 67 1018.8
20260507000005 20 108 0.0 3.2 0.00 0.00 0.00 64 1018.9
20260506235506 20 320 0.0 4.8 0.00 0.00 0.00 65 1018.8
20260506235005 20 325 1.6 4.8 0.00 0.00 0.00 66 1018.8
20260506234507 20 103 1.6 6.4 0.00 0.00 0.00 66 1018.9
20260506234006 20 107 0.0 6.4 0.00 0.00 0.00 63 1018.8
20260506233505 20 342 0.0 4.8 0.00 0.00 0.00 63 1018.8
20260506233006 20 353 0.0 6.4 0.00 0.00 0.00 67 1018.8
20260506232505 20 2 1.6 6.4 0.00 0.00 0.00 66 1018.8
20260506232005 20 83 1.6 6.4 0.00 0.00 0.00 67 1018.8
20260506231505 20 108 1.6 6.4 0.00 0.00 0.00 64 1018.9
20260506231006 20 90 1.6 6.4 0.00 0.00 0.00 64 1019.0
20260506230006 20 0 0.0 0.0 0.00 0.00 0.00 64 1019.1
20260506225505 20 0 0.0 0.0 0.00 0.00 0.00 66 1019.1
20260506225006 20 291 0.0 3.2 0.00 0.00 0.00 69 1019.2
20260506224505 20 262 0.0 3.2 0.00 0.00 0.00 66 1019.2
20260506224005 20 228 0.0 8.0 0.00 0.00 0.00 65 1019.3
20260506223506 20 224 1.6 8.0 0.00 0.00 0.00 63 1019.4
20260506223005 20 211 1.6 8.0 0.00 0.00 0.00 63 1019.4
20260506221005 20 107 1.6 6.4 0.00 0.00 0.00 65 1019.5
20260506220505 20 111 1.6 6.4 0.00 0.00 0.00 66 1019.6
20260506220005 20 116 0.0 4.8 0.00 0.00 0.00 67 1019.6
20260506215505 20 65 0.0 3.2 0.00 0.00 0.00 65 1019.6
20260506215006 20 85 0.0 8.0 0.00 0.00 0.00 66 1019.5
20260506214505 20 97 0.0 8.0 0.00 0.00 0.00 67 1019.5
20260506214006 19 165 0.0 3.2 0.00 0.00 0.00 70 1019.5
20260506213505 20 160 1.6 4.8 0.00 0.00 0.00 64 1019.5
20260506213006 20 164 1.6 8.0 0.00 0.00 0.00 65 1019.6
20260506212505 20 159 1.6 8.0 0.00 0.00 0.00 67 1019.7
20260506212005 20 199 1.6 8.0 0.00 0.00 0.00 66 1019.8
20260506211505 20 237 1.6 8.0 0.00 0.00 0.00 68 1019.8
20260506211005 18 233 1.6 6.4 0.00 0.00 0.00 69 1019.9
20260506210505 18 203 1.6 6.4 0.00 0.00 0.00 68 1020.1
20260506210005 18 208 1.6 8.0 0.00 0.00 0.00 69 1020.0
20260506205505 18 225 3.2 9.7 0.00 0.00 0.00 70 1020.0
20260506205006 18 217 3.2 11.3 0.00 0.00 0.00 68 1020.0
20260506204505 18 215 3.2 11.3 0.00 0.00 0.00 68 1020.0
20260506204005 19 204 1.6 8.0 0.00 0.00 0.00 69 1019.9
20260506203505 18 224 3.2 11.3 0.00 0.00 0.00 70 1019.9
20260506203006 18 212 1.6 11.3 0.00 0.00 0.00 70 1019.9
20260506202005 18 125 3.2 14.5 0.00 0.00 0.00 72 1019.9
20260506201005 17 0 0.0 0.0 0.00 0.00 0.00 75 1020.0
20260506200505 17 0 0.0 0.0 0.00 0.00 0.00 74 1020.1
20260506200005 17 235 0.0 4.8 0.00 0.00 0.00 72 1020.2
20260506195505 17 235 0.0 4.8 0.00 0.00 0.00 74 1020.2
20260506195005 17 0 0.0 0.0 0.00 0.00 0.00 76 1020.3
20260506194505 17 0 0.0 0.0 0.00 0.00 0.00 75 1020.4
20260506193505 17 193 0.0 3.2 0.00 0.00 0.00 74 1020.4
20260506193005 17 209 0.0 6.4 0.00 0.00 0.00 75 1020.4
20260506192505 17 206 1.6 6.4 0.00 0.00 0.00 74 1020.4
20260506192005 17 203 1.6 8.0 0.00 0.00 0.00 75 1020.4
20260506191505 17 205 1.6 8.0 0.00 0.00 0.00 73 1020.4
20260506191004 17 119 0.0 4.8 0.00 0.00 0.00 74 1020.3
20260506190505 17 129 1.6 4.8 0.00 0.00 0.00 77 1020.3
20260506190005 17 134 1.6 8.0 0.00 0.00 0.00 76 1020.3
20260506185505 17 122 1.6 8.0 0.00 0.00 0.00 76 1020.4
20260506185005 16 169 1.6 6.4 0.00 0.00 0.00 75 1020.3
20260506184506 16 227 1.6 6.4 0.00 0.00 0.00 76 1020.2
20260506184005 16 210 1.6 6.4 0.00 0.00 0.00 75 1020.2
20260506183505 16 189 1.6 6.4 0.00 0.00 0.00 76 1020.2
20260506182006 16 176 0.0 3.2 0.00 0.00 0.00 75 1020.3
20260506181505 16 284 0.0 6.4 0.00 0.00 0.00 74 1020.4
20260506181005 16 258 0.0 6.4 0.00 0.00 0.00 80 1020.3
20260506180504 16 203 1.6 4.8 0.00 0.00 0.00 77 1020.3
20260506180006 16 196 0.0 4.8 0.00 0.00 0.00 76 1020.3
20260506175506 16 206 0.0 4.8 0.00 0.00 0.00 78 1020.3
20260506175005 15 210 1.6 4.8 0.00 0.00 0.00 78 1020.4
20260506174505 15 223 1.6 9.7 0.00 0.00 0.00 78 1020.4
20260506174005 15 224 1.6 9.7 0.00 0.00 0.00 78 1020.4
20260506173505 15 233 1.6 6.4 0.00 0.00 0.00 79 1020.3
20260506173005 15 237 1.6 6.4 0.00 0.00 0.00 79 1020.2
20260506172506 15 239 0.0 6.4 0.00 0.00 0.00 79 1020.1
20260506172005 15 0 0.0 0.0 0.00 0.00 0.00 81 1020.1
20260506171506 15 0 0.0 0.0 0.00 0.00 0.00 82 1020.1
20260506171005 15 0 0.0 0.0 0.00 0.00 0.00 82 1020.1
20260506170504 15 0 0.0 0.0 0.00 0.00 0.00 82 1020.2
20260506165505 14 0 0.0 0.0 0.00 0.00 0.00 82 1020.3
20260506165005 14 0 0.0 0.0 0.00 0.00 0.00 82 1020.3
20260506164007 14 0 0.0 0.0 0.00 0.00 0.00 82 1020.2
20260506163505 14 0 0.0 0.0 0.00 0.00 0.00 82 1020.1
20260506163006 14 0 0.0 0.0 0.00 0.00 0.00 84 1020.2
20260506162505 14 0 0.0 0.0 0.00 0.00 0.00 83 1020.2
20260506162005 14 0 0.0 0.0 0.00 0.00 0.00 83 1020.1
20260506161505 14 182 0.0 3.2 0.00 0.00 0.00 83 1020.0
20260506161005 14 165 0.0 3.2 0.00 0.00 0.00 83 1019.9
20260506160505 14 141 0.0 6.4 0.00 0.00 0.00 83 1019.9
20260506160005 14 151 0.0 6.4 0.00 0.00 0.00 83 1019.9
20260506155005 14 190 0.0 8.0 0.00 0.00 0.00 84 1019.8
20260506154505 13 202 1.6 8.0 0.00 0.00 0.00 84 1019.5
20260506154005 13 200 1.6 6.4 0.00 0.00 0.00 85 1019.2
20260506153505 13 208 0.0 4.8 0.00 0.00 0.00 85 1019.3
20260506152505 13 0 0.0 0.0 0.00 0.00 0.00 84 1019.9
20260506152005 13 0 0.0 0.0 0.00 0.00 0.00 85 1020.1
20260506151505 13 0 0.0 0.0 0.00 0.00 0.00 85 1020.2
20260506151005 13 0 0.0 0.0 0.00 0.00 0.00 85 1020.3
20260506150505 13 0 0.0 0.0 0.00 0.00 0.00 85 1020.2
20260506145505 13 0 0.0 0.0 0.00 0.00 0.00 84 1020.1
20260506145005 13 217 0.0 1.6 0.00 0.00 0.00 85 1020.1
20260506144505 13 224 0.0 1.6 0.00 0.00 0.00 85 1019.9
20260506144005 13 226 0.0 4.8 0.00 0.00 0.00 84 1019.9
20260506143507 13 226 0.0 4.8 0.00 0.00 0.00 84 1019.9
20260506143005 13 220 0.0 1.6 0.00 0.00 0.00 84 1019.7
20260506142505 13 217 0.0 4.8 0.00 0.00 0.00 84 1019.5
20260506142005 13 208 0.0 6.4 0.00 0.00 0.00 84 1019.4
20260506141505 13 204 0.0 6.4 0.00 0.00 0.00 84 1019.2
20260506141006 13 219 0.0 1.6 0.00 0.00 0.00 84 1019.1
20260506140006 13 0 0.0 0.0 0.00 0.00 0.00 85 1019.2
20260506135506 13 0 0.0 0.0 0.00 0.00 0.00 84 1019.1
20260506135005 13 0 0.0 0.0 0.00 0.00 0.00 84 1019.1
20260506133505 13 104 0.0 1.6 0.00 0.00 0.00 84 1019.0
20260506133005 13 104 0.0 1.6 0.00 0.00 0.00 84 1019.0
20260506132505 13 0 0.0 0.0 0.00 0.00 0.00 84 1018.9
20260506132005 13 115 0.0 1.6 0.00 0.00 0.00 84 1018.9
20260506131505 13 115 0.0 1.6 0.00 0.00 0.00 84 1018.9
20260506131005 13 0 0.0 0.0 0.00 0.00 0.00 84 1018.8
20260506130506 13 165 0.0 4.8 0.00 0.00 0.00 84 1018.6
20260506130005 13 165 0.0 4.8 0.00 0.00 0.00 84 1018.7
20260506125505 13 142 0.0 1.6 0.00 0.00 0.00 84 1018.7
20260506125005 13 142 0.0 1.6 0.00 0.00 0.00 84 1018.7
20260506124505 13 118 0.0 1.6 0.00 0.00 0.00 83 1018.6
20260506123505 13 128 1.6 6.4 0.00 0.00 0.00 83 1018.5
20260506123005 13 140 0.0 6.4 0.00 0.00 0.00 83 1018.6
20260506122505 13 96 0.0 6.4 0.00 0.00 0.00 83 1018.7
20260506122005 13 0 0.0 0.0 0.00 0.00 0.00 83 1018.7
20260506121006 14 0 0.0 0.0 0.00 0.00 0.00 83 1018.6
20260506120505 14 0 0.0 0.0 0.00 0.00 0.00 83 1018.6
20260506120005 14 0 0.0 0.0 0.00 0.00 0.00 83 1018.6
20260506114506 14 0 0.0 0.0 0.00 0.00 0.00 83 1018.3
20260506114005 14 0 0.0 0.0 0.00 0.00 0.00 83 1018.3
20260506113504 14 0 0.0 0.0 0.00 0.00 0.00 83 1018.2
20260506112006 14 0 0.0 0.0 0.00 0.00 0.00 82 1018.1
20260506111506 14 0 0.0 0.0 0.00 0.00 0.00 82 1018.1
20260506111005 14 0 0.0 0.0 0.00 0.00 0.00 82 1018.0
20260506110505 14 0 0.0 0.0 0.00 0.00 0.00 82 1017.9
20260506110005 14 0 0.0 0.0 0.00 0.00 0.00 82 1017.9
20260506105505 14 0 0.0 0.0 0.00 0.00 0.00 82 1017.8
20260506105005 14 0 0.0 0.0 0.00 0.00 0.00 82 1017.7
20260506104505 14 0 0.0 0.0 0.00 0.00 0.00 82 1017.6
20260506103005 14 0 0.0 0.0 0.00 0.00 0.00 82 1017.5
20260506102505 14 0 0.0 0.0 0.00 0.00 0.00 82 1017.4
20260506102005 14 0 0.0 0.0 0.00 0.00 0.00 82 1017.3
20260506101005 14 150 0.0 1.6 0.00 0.00 0.00 82 1017.2
20260506100505 14 177 0.0 4.8 0.00 0.00 0.00 82 1017.2
20260506095505 15 194 0.0 4.8 0.00 0.00 0.00 81 1017.2
20260506095005 15 139 0.0 1.6 0.00 0.00 0.00 82 1017.1
20260506094505 15 139 0.0 1.6 0.00 0.00 0.00 82 1017.1
20260506094005 15 140 0.0 1.6 0.00 0.00 0.00 82 1017.0
20260506093505 15 142 0.0 1.6 0.00 0.00 0.00 82 1017.0
20260506093005 15 142 0.0 1.6 0.00 0.00 0.00 82 1017.0
20260506092505 15 141 0.0 1.6 0.00 0.00 0.00 82 1017.0
20260506091505 15 146 0.0 3.2 0.00 0.00 0.00 83 1016.9
20260506091005 15 132 0.0 3.2 0.00 0.00 0.00 83 1016.9
20260506090505 15 127 0.0 3.2 0.00 0.00 0.00 83 1016.8
20260506090005 15 0 0.0 0.0 0.00 0.00 0.00 83 1016.9
20260506085005 15 90 0.0 1.6 0.00 0.00 0.00 83 1016.8
20260506084505 15 0 0.0 0.0 0.00 0.00 0.00 83 1016.8
20260506083005 15 0 0.0 0.0 0.00 0.00 0.00 84 1016.9
20260506082005 15 0 0.0 0.0 0.00 0.00 0.00 84 1016.9
20260506081506 15 0 0.0 0.0 0.00 0.00 0.00 84 1016.9
20260506081005 15 0 0.0 0.0 0.00 0.00 0.00 83 1016.8
20260506080506 15 0 0.0 0.0 0.00 0.00 0.00 83 1016.8
20260506073505 15 0 0.0 0.0 0.00 0.00 0.00 83 1016.5
20260506073005 15 0 0.0 0.0 0.00 0.00 0.00 83 1016.4
20260506072505 15 0 0.0 0.0 0.00 0.00 0.00 83 1016.4
20260506072005 15 0 0.0 0.0 0.00 0.00 0.00 83 1016.3
20260506071505 15 0 0.0 0.0 0.00 0.00 0.00 83 1016.4
20260506071005 15 0 0.0 0.0 0.00 0.00 0.00 83 1016.4
20260506070505 15 0 0.0 0.0 0.00 0.00 0.00 83 1016.3